Theta_e
342 349 349 351 351 350 350 350 350 349 350 351 351 351 351 351 351 351 351 351 351 348 348 347 346 345 344 344 343 342 342 341 341 341 340 340 343 346 346 343 342 340 340
346 350 348 350 350 349 350 350 350 350 350 349 349 350 350 349 349 350 351 351 351 349 349 348 347 345 344 343 343 342 342 341 341 340 340 341 344 344 345 345 342 341 340
346 350 351 348 349 350 350 350 350 350 349 349 350 349 349 348 348 348 349 350 350 349 349 348 347 345 345 344 343 343 342 342 341 340 340 339 339 341 344 343 343 342 340
347 349 350 348 349 350 350 350 350 350 350 349 349 348 349 347 347 347 347 349 349 347 347 347 346 344 344 343 342 342 342 342 340 342 341 340 337 343 344 345 344 342 341
347 349 350 346 347 348 348 349 349 348 347 347 348 349 349 347 346 345 343 344 344 343 343 343 342 339 337 337 337 338 339 340 340 341 342 343 342 343 344 344 345 343 340
347 349 345 343 345 346 347 347 346 346 346 346 346 346 345 344 341 339 338 337 337 337 336 335 333 331 329 330 329 331 334 335 339 340 340 340 340 341 343 342 341 344 342
344 345 346 341 344 345 346 345 346 345 343 344 344 344 340 338 336 334 333 332 332 331 330 329 328 327 325 324 323 323 323 328 339 334 334 334 334 337 340 339 339 340 342
344 345 346 344 342 342 343 342 340 339 339 339 340 338 335 333 332 331 330 328 327 326 325 324 323 323 322 321 320 318 319 323 331 327 327 328 329 334 339 338 336 337 339
345 343 345 344 340 337 338 336 335 335 335 335 334 333 331 330 329 328 327 325 324 322 321 319 319 319 318 316 316 315 316 320 319 320 321 326 331 334 335 334 335 335 335
341 341 339 341 340 340 339 332 332 331 331 331 329 327 327 327 325 324 323 321 321 319 318 317 315 315 315 313 312 312 315 319 316 319 325 326 327 328 330 328 329 330 330
335 336 335 335 338 339 338 332 329 328 328 327 325 323 325 327 325 324 319 318 317 316 314 313 312 310 311 311 309 309 315 315 316 320 321 324 324 326 324 325 324 323 325
328 330 330 332 336 337 333 335 334 329 329 328 326 325 324 324 322 318 315 313 312 311 310 309 308 308 314 311 311 312 314 314 317 318 319 317 320 323 322 320 321 323 323
327 326 326 332 336 334 331 330 329 327 326 325 325 322 321 318 317 316 314 313 312 309 311 310 310 310 311 311 310 313 313 313 316 317 312 314 317 318 319 319 319 320 320
328 326 328 330 329 329 327 325 324 322 322 320 319 320 318 315 315 313 312 311 311 310 310 310 309 310 310 309 310 312 311 312 314 314 309 309 310 314 316 316 317 317 319
331 331 330 326 323 323 323 321 321 320 318 318 317 317 316 314 313 312 311 310 309 309 309 309 308 308 308 308 309 310 310 311 311 312 307 304 306 308 311 312 314 316 317
331 331 329 324 322 320 318 318 318 317 317 316 316 315 315 314 313 310 309 308 308 308 308 308 308 307 307 308 309 309 309 309 309 309 307 304 302 304 306 308 311 312 314
330 330 328 325 321 318 316 316 315 315 315 314 313 314 313 313 312 311 308 308 307 308 309 308 307 307 306 306 308 308 307 308 306 305 304 304 303 300 302 303 306 308 310
331 327 325 322 320 318 315 314 313 314 313 312 312 312 312 311 311 309 307 307 307 307 307 307 308 306 306 306 307 306 306 306 305 304 303 302 302 301 301 299 301 304 306
332 326 324 322 319 317 315 313 313 313 311 311 311 310 311 310 309 308 306 306 307 306 307 306 305 307 305 305 305 305 306 305 304 302 301 301 301 300 301 298 297 300 303
330 326 324 321 319 317 314 313 311 310 310 310 309 309 310 308 307 306 306 305 306 305 305 305 305 304 305 304 302 303 304 304 304 303 301 299 299 299 300 301 301 300 299
329 323 319 318 318 315 312 309 308 306 307 308 308 308 308 307 306 306 304 304 305 304 304 304 304 303 301 306 304 303 303 305 304 303 303 299 298 297 299 299 299 300 301
326 323 317 315 315 314 312 310 309 307 307 308 307 307 307 306 306 304 304 303 303 302 302 303 304 301 300 303 303 303 298 300 300 302 302 298 298 297 297 297 298 299 299
323 323 318 315 314 314 313 310 309 308 308 306 305 305 305 305 304 304 303 303 303 302 301 302 302 301 299 299 299 301 297 297 297 299 298 298 298 297 297 297 297 297 296
323 323 321 318 316 315 313 310 307 305 303 305 305 305 304 304 303 303 302 302 302 301 300 300 300 300 301 297 298 297 298 298 295 294 297 298 298 296 296 296 297 296 295
321 320 319 318 316 314 312 310 308 306 306 306 305 304 303 303 302 301 301 301 301 300 299 298 297 296 298 297 297 296 297 298 297 295 293 294 296 298 297 298 297 296 294
321 319 318 316 313 313 311 309 308 307 307 304 303 302 301 301 301 301 300 300 300 298 297 296 296 295 295 295 295 296 296 295 295 295 293 294 291 296 295 297 297 296 294
Wind_Speed
15 18 15 15 13 12 11 10 10 11 11 11 11 11 9 9 10 10 10 9 9 11 11 11 10 10 10 10 10 10 10 10 9 9 9 6 8 9 9 9 11 13 12
18 19 15 16 14 14 13 12 11 11 12 12 11 11 10 10 10 9 10 8 9 10 11 11 10 10 11 11 10 10 10 10 10 9 9 8 12 12 11 8 8 11 11
18 19 19 15 15 15 15 14 13 14 14 13 13 13 12 12 11 10 10 10 10 11 10 10 10 10 11 10 10 9 8 8 7 6 8 6 8 12 14 9 6 8 10
17 17 18 15 16 15 14 14 14 14 14 13 13 13 14 13 11 10 10 11 10 11 12 12 11 11 12 13 12 10 8 7 6 10 3 8 7 14 13 10 6 5 7
16 16 18 14 15 15 14 13 13 12 12 11 11 13 15 15 14 14 15 14 15 16 15 15 16 16 15 13 13 12 9 5 5 7 8 10 9 13 11 10 11 5 3
16 15 17 14 14 14 13 12 11 10 11 12 14 15 16 16 16 16 16 16 16 15 15 15 16 15 14 14 14 13 10 9 12 6 6 8 12 14 15 15 15 11 6
14 14 15 11 13 15 14 12 11 12 13 14 13 14 17 17 17 17 17 16 16 15 15 15 15 15 15 14 15 14 12 12 8 8 7 9 12 15 16 13 15 17 11
16 15 14 14 14 14 13 13 13 15 14 16 15 16 17 18 17 17 17 16 16 15 15 15 14 15 15 14 14 14 13 13 6 7 8 9 12 13 16 18 18 17 19
14 14 13 14 14 14 13 13 13 16 15 16 16 16 16 16 16 17 16 15 15 15 15 14 14 14 15 14 13 12 10 11 7 7 8 9 11 17 18 19 18 20 19
11 12 12 13 12 12 13 13 13 16 16 16 17 17 16 16 17 16 15 14 15 15 15 14 13 14 14 14 12 9 4 1 9 7 10 10 15 16 18 19 19 21 23
10 12 12 12 12 13 13 13 15 15 17 17 15 14 12 8 10 11 14 14 15 15 14 13 12 9 10 13 12 6 7 6 6 7 8 14 16 16 16 18 19 20 20
12 12 11 12 13 14 11 13 12 12 9 9 9 8 6 7 7 11 12 13 13 13 12 11 8 4 2 4 5 2 6 6 6 9 10 16 14 17 17 16 17 18 20
13 11 13 14 14 13 11 9 6 6 6 6 10 8 7 7 6 5 5 5 5 3 4 4 5 6 7 5 5 5 5 5 5 7 12 15 18 16 17 17 17 18 18
18 15 16 15 14 12 9 8 8 7 7 6 7 10 7 5 5 4 4 5 4 4 5 4 5 6 7 7 7 7 6 5 4 7 11 16 17 16 17 17 17 18 18
21 20 18 16 13 12 11 9 8 7 7 8 8 6 6 7 6 5 5 5 4 4 4 4 5 5 6 7 6 6 7 7 6 5 7 16 17 18 18 18 18 18 18
21 21 19 17 14 13 11 12 9 8 8 8 7 7 7 7 6 6 5 5 5 4 4 4 4 5 5 5 6 6 7 7 7 6 5 9 15 18 18 18 19 19 19
19 19 19 17 15 14 13 12 9 9 9 8 7 8 7 7 7 7 5 5 5 5 6 5 5 4 4 5 6 6 6 7 7 7 6 6 6 15 17 17 18 18 18
21 21 19 15 16 15 13 11 9 10 8 8 8 8 8 8 8 7 6 5 5 4 4 4 3 4 4 4 4 5 5 6 7 7 7 7 6 6 10 13 15 17 17
21 21 20 18 18 16 14 11 10 11 8 8 8 8 10 9 8 7 6 6 5 5 4 4 4 3 4 5 5 5 5 5 5 5 7 7 8 7 6 9 8 15 16
20 21 21 18 19 17 13 11 9 9 8 8 8 8 11 8 8 7 7 7 5 5 5 5 5 5 4 4 5 5 5 4 4 3 5 5 6 6 6 7 5 9 12
21 22 21 20 20 15 13 13 12 11 10 9 8 11 11 9 9 8 7 7 5 5 5 5 5 6 5 3 5 5 5 4 2 2 2 4 5 6 6 6 6 6 5
22 22 22 20 21 18 14 12 11 11 10 10 9 10 9 10 9 8 8 7 7 6 6 5 3 5 5 3 3 3 5 4 5 2 2 3 5 5 5 6 6 7 7
25 25 23 23 23 20 18 13 11 11 10 10 10 10 10 11 9 9 9 8 7 6 5 5 4 3 4 4 3 4 3 2 4 4 3 3 3 4 3 4 6 6 6
21 20 22 23 23 21 22 17 19 15 14 12 12 10 10 11 10 9 9 9 8 6 7 6 3 3 2 5 3 4 4 5 4 5 4 2 2 3 3 4 4 4 5
21 21 21 23 23 23 22 18 16 17 12 11 11 14 12 11 11 10 9 9 9 6 7 7 6 5 3 3 3 3 3 1 2 3 3 4 2 0 1 2 2 3 5
17 18 20 23 23 22 21 21 21 20 17 15 14 13 11 10 9 11 10 9 8 8 9 7 7 6 5 4 4 3 2 2 2 2 3 3 4 1 3 2 2 3 4
Wind_Direction
157 136 147 147 146 143 142 138 131 126 122 115 117 115 113 92 95 110 115 114 110 108 103 96 87 80 74 67 58 53 49 39 30 21 10 17 39 22 19 13 349 25 11
145 145 145 140 143 142 144 142 135 128 125 129 124 114 104 93 87 80 76 108 120 115 106 96 88 77 70 64 56 47 42 34 23 13 335 253 82 32 4 356 3 10 0
148 139 150 140 143 144 145 143 138 138 136 135 140 125 115 113 105 93 84 84 92 96 101 90 78 70 65 63 60 52 42 33 18 334 282 359 39 28 0 347 347 351 351
145 148 144 143 145 147 148 145 142 142 144 148 146 136 131 118 107 99 91 76 74 76 71 65 61 62 58 55 51 44 36 26 356 301 332 5 9 45 6 1 329 324 335
149 149 130 149 148 150 146 142 144 143 145 143 130 122 119 111 102 90 82 75 73 72 66 64 64 64 63 60 58 51 45 23 276 282 14 25 12 31 4 2 340 298 326
152 147 142 147 146 134 134 125 129 126 121 112 104 104 109 105 101 99 92 86 82 85 82 77 73 68 64 61 55 46 29 352 289 40 40 76 35 6 23 16 11 341 294
148 135 148 136 132 130 127 132 129 113 112 104 104 111 111 112 108 102 98 94 90 86 80 75 72 69 63 57 53 44 26 344 30 36 33 47 27 12 21 14 12 8 337
149 141 143 128 122 122 126 120 119 118 118 115 116 114 116 112 107 102 97 92 89 85 80 76 72 68 64 59 53 47 31 354 52 44 29 40 10 18 33 32 22 11 2
147 144 145 142 127 112 114 122 125 122 116 112 112 110 108 103 102 99 96 95 92 87 82 77 74 73 69 62 56 50 36 1 40 44 30 33 10 44 34 34 29 27 17
149 139 134 143 145 140 141 119 120 117 113 114 116 115 107 103 105 102 104 89 88 84 82 79 78 77 73 66 59 47 5 292 45 45 50 28 30 35 36 27 26 30 21
155 152 148 150 151 150 143 131 124 120 121 119 119 125 158 126 114 96 84 94 90 87 84 82 80 86 110 89 64 32 299 47 57 53 51 17 36 40 35 32 26 19 16
160 158 156 157 159 157 146 156 146 142 153 141 143 146 131 127 94 96 98 94 86 91 86 82 80 117 273 55 88 146 59 61 58 60 55 31 35 43 37 30 28 28 25
164 160 167 168 162 160 149 156 161 157 152 148 143 150 129 132 142 122 127 119 110 100 81 102 92 57 56 41 60 50 71 75 72 76 52 36 39 37 38 31 28 24 20
173 170 176 171 167 166 156 168 160 161 153 156 148 146 144 142 132 129 120 117 108 79 85 73 79 72 73 68 62 70 57 65 87 92 65 45 41 36 35 30 27 23 23
182 177 177 170 168 158 163 150 159 153 165 139 155 152 149 140 133 134 118 108 94 101 100 94 89 82 92 78 75 87 83 78 73 85 90 51 44 37 34 28 25 24 26
186 177 174 175 169 160 158 154 150 160 140 158 148 146 150 141 142 133 131 121 112 97 95 87 74 87 85 97 96 87 78 82 68 61 66 96 60 43 36 30 27 24 22
189 180 174 174 167 164 157 151 155 152 160 152 138 147 142 142 140 134 131 127 112 107 118 116 113 112 118 111 106 107 102 87 78 65 56 39 87 79 45 35 30 27 25
185 183 175 171 171 165 158 157 155 152 155 148 149 143 144 143 142 139 135 122 118 117 111 103 114 118 112 109 110 104 95 92 83 75 57 38 34 24 86 41 38 31 28
186 182 176 173 173 169 162 159 154 151 155 154 151 148 146 149 152 138 131 127 149 122 114 112 95 84 115 111 106 101 99 100 90 75 66 53 44 28 21 90 57 46 30
183 189 177 173 174 170 163 155 155 157 153 160 158 152 155 150 149 144 130 133 142 130 117 94 100 84 82 110 120 115 107 100 80 79 78 63 61 37 38 26 22 88 56
189 185 181 176 174 171 171 171 168 165 161 164 163 159 158 155 151 153 136 139 135 126 104 113 117 112 95 132 143 140 134 143 110 124 96 57 45 47 42 35 23 7 74
193 189 181 179 177 182 177 177 175 165 167 165 156 162 160 158 159 157 149 144 138 129 122 117 151 137 103 73 250 205 174 171 203 181 96 51 39 29 53 55 31 28 20
200 194 186 184 181 184 180 172 168 163 162 167 168 164 166 163 163 157 153 142 142 141 130 122 118 179 136 103 47 315 206 248 175 175 162 48 27 36 19 37 36 37 26
208 198 191 190 186 188 181 179 179 174 174 180 174 168 164 166 163 161 153 149 149 137 137 120 118 114 187 144 118 59 25 346 276 179 191 162 36 12 26 17 39 54 19
205 199 195 192 188 190 187 185 181 183 182 171 171 163 169 168 168 165 160 155 148 145 132 130 138 125 110 118 115 144 111 80 351 292 226 169 222 164 356 2 351 13 10
204 201 202 198 195 191 190 191 191 186 179 174 173 172 172 168 167 169 165 159 151 139 139 139 131 126 112 120 124 143 177 240 192 264 269 275 315 116 321 332 320 360 354